LogoCoinalyze
    Ad-Free Version 홈 마켓 펀딩비
    선물 데이터
    • 집계된 데이터 (코인들)
    • 개별 차트
    • 글로벌 차트
    알림
    TA
    Bitcoin Ethereum BNB Ripple Tron ZCash Dogecoin Monero UNUS SED LEO Chainlink Cardano Stellar Lumens Bitcoin Cash Litecoin Hedera Cronos Polkadot Ethereum Classic Algorand Quant Cosmos VeChain Dash Bitcoin SV BitTorrent Terra Decred Tezos Iota The Graph THETA MultiversX Decentraland NEO Chiliz Golem Basic Attention Token Horizen Qtum 0x DigiByte Beam RIF Token FTX Token FUNToken Holo aelf Zilliqa Ontology Nano Enjin Coin Ravencoin Verge Mask Network Siacoin Status WINk Waves IoTeX Power Ledger iExec RLC Steem Kyber Network Crystal Lisk Ardor Ark WOO Network IOST WAX Icon Storj Wanchain Loopring Bitcoin Diamond Augur AdEx Bitcoin Gold OmiseGO NEM MonaCoin BitShares Ren Komodo V Systems Nuls Mithril SOLVE Maker EOS Aion Nebulas HedgeTrade Bread Fetch.ai TomoChain Polygon Fantom Waltonchain GXChain Bytom Metaverse ETP MaidSafeCoin QASH
    정렬 검색:
    더보기
    • API
    • 캔들 유형
    • 블로그
    • 기부
    • 연락하기
    • 사이트맵
    • Privacy Policy
    • Disclaimer
    • Theme:
    한국어
    • English
    • Français
    • Русский
    • Deutsch
    • Türkçe
    • Nederlands
    • Português (BR)
    • Español
    • 简体中文
    • 日本語
     
    로그인 / 회원가입
    Markets/ Pepe/ PEPE 로 USDT/ PEPEUSDT Perp Gate.io
    Trades
    WL
    채팅
    통계
    뉴스
    ⦷
    AAA
    0.00000340300 10000000.00000000 22:42:53
    0.00000340400 10000000.00000000 22:42:51
    0.00000340300 10000000.00000000 22:42:49
    0.00000340500 10000000.00000000 22:42:47
    0.00000340300 10000000.00000000 22:42:45
    0.00000340300 10000000.00000000 22:42:43
    0.00000340300 10000000.00000000 22:42:39
    0.00000340300 10000000.00000000 22:42:37
    0.00000340300 20000000.00000000 22:42:35
    0.00000340300 0.00000000 22:42:35
    0.00000340200 10000000.00000000 22:42:33
    0.00000340200 10000000.00000000 22:42:31
    0.00000340200 10000000.00000000 22:42:29
    0.00000340200 10000000.00000000 22:42:25
    0.00000340200 10000000.00000000 22:42:21
    0.00000340200 10000000.00000000 22:42:19
    0.00000340200 10000000.00000000 22:42:17
    0.00000340300 0.00000000 22:42:16
    0.00000340300 0.00000000 22:42:16
    0.00000340300 10000000.00000000 22:42:16
    0.00000340300 10000000.00000000 22:42:15
    0.00000340300 10000000.00000000 22:42:11
    0.00000340100 10000000.00000000 22:42:09
    0.00000340100 10000000.00000000 22:42:07
    0.00000340300 20000000.00000000 22:41:41
    0.00000340300 20000000.00000000 22:41:41
    0.00000340300 0.00000000 22:41:41
    0.00000340300 0.00000000 22:41:41
    0.00000340200 0.00000000 22:41:41
    0.00000340400 10000000.00000000 22:41:31
    0.00000340300 0.00000000 22:41:31
    0.00000340300 20000000.00000000 22:41:31
    0.00000340200 0.00000000 22:41:31
    0.00000340300 30000000.00000000 22:41:31
    0.00000340300 20000000.00000000 22:41:31
    0.00000340200 110000000.00000000 22:41:31
    0.00000340200 40000000.00000000 22:41:31
    0.00000340200 30000000.00000000 22:41:31
    0.00000340400 10000000.00000000 22:41:18
    0.00000340400 0.00000000 22:41:18
    0.00000340300 50000000.00000000 22:41:18
    0.00000340300 0.00000000 22:41:18
    0.00000340200 10000000.00000000 22:41:05
    0.00000340200 10000000.00000000 22:41:03
    0.00000340300 10000000.00000000 22:41:01
    0.00000340200 10000000.00000000 22:40:59
    0.00000340200 10000000.00000000 22:40:57
    0.00000340300 10000000.00000000 22:40:55
    0.00000340300 10000000.00000000 22:40:53
    0.00000340200 0.00000000 22:40:51
    0.00000340200 90000000.00000000 22:40:51
    0.00000340200 10000000.00000000 22:40:49
    0.00000340100 10000000.00000000 22:40:45
    0.00000340100 10000000.00000000 22:40:43
    0.00000340100 10000000.00000000 22:40:39
    0.00000340100 10000000.00000000 22:40:37
    0.00000340200 10000000.00000000 22:40:35
    0.00000340100 10000000.00000000 22:40:33
    0.00000340200 10000000.00000000 22:40:31
    0.00000340200 10000000.00000000 22:40:29
    0.00000340100 10000000.00000000 22:40:27
    0.00000340100 10000000.00000000 22:40:25
    0.00000340200 10000000.00000000 22:40:23
    0.00000340100 10000000.00000000 22:40:21
    0.00000340100 0.00000000 22:40:19
    0.00000340200 10000000.00000000 22:40:15
    0.00000340100 10000000.00000000 22:40:13
    0.00000340000 10000000.00000000 22:40:11
    0.00000340000 10000000.00000000 22:40:09
    0.00000339800 10000000.00000000 22:40:07
    0.00000339800 10000000.00000000 22:40:05
    0.00000339800 10000000.00000000 22:40:03
    0.00000339800 10000000.00000000 22:40:01
    0.00000339800 10000000.00000000 22:39:59
    0.00000339800 10000000.00000000 22:39:57
    0.00000339800 10000000.00000000 22:39:55
    0.00000339800 10000000.00000000 22:39:53
    0.00000339900 40000000.00000000 22:39:52
    0.00000339900 20000000.00000000 22:39:52
    0.00000339800 10000000.00000000 22:39:51
    0.00000339900 10000000.00000000 22:39:49
    0.00000339800 10000000.00000000 22:39:47
    0.00000339900 10000000.00000000 22:39:45
    0.00000339800 10000000.00000000 22:39:43
    0.00000339800 10000000.00000000 22:39:41
    0.00000339700 10000000.00000000 22:39:39
    0.00000339800 10000000.00000000 22:39:37
    0.00000339700 10000000.00000000 22:39:35
    0.00000339700 10000000.00000000 22:39:33
    0.00000339800 10000000.00000000 22:39:29
    0.00000339700 10000000.00000000 22:39:27
    0.00000339700 10000000.00000000 22:39:21
    0.00000339700 10000000.00000000 22:39:19
    0.00000339800 10000000.00000000 22:39:17
    0.00000339800 10000000.00000000 22:39:15
    0.00000339800 10000000.00000000 22:39:13
    0.00000339700 10000000.00000000 22:39:11
    0.00000339700 10000000.00000000 22:39:09
    0.00000339700 10000000.00000000 22:39:05
    0.00000339700 10000000.00000000 22:39:03
    로그아웃
    AAA
    고객 센터
    🙂 🤣 😎 🤗 😛 😉 😜 🤑 🤔 😑 😴 😕 🙃 😲 😇 🙁 😢 😬 😟 😠 🕺 🏃 💪 ✌ 👌 👍 👎 👏 👋 🤝 🍺 🍻 🐋 🐟 🦈 🗽 🚄 ✈ 🛑 🚀 🏦 🌚 ⭐ 🌞 ⚡ 🏆 💰 💲 🔨 ❓ ❗ 💯 🔶 🏁
    ☺
    로그인 또는 회원가입 및 채팅
    24시간
    변동
    -1.25%
    거래량
    2,561,620,000,000
    고가
    0.00000350400
    저가
    0.00000336600
    7일
    변동
    -10.87%
    거래량
    38,408,230,000,000
    고가
    0.00000401300
    저가
    0.00000335700
    30일
    변동
    +17.10%
    거래량
    162,150,260,000,000
    고가
    0.00000455800
    저가
    0.00000252900
    Pepe price rallies 25% as whale demand and futures interest surge
    Key takeaways Pepe has gained 25% this week, including a combined 22% advance over the previous two days. Seven whale transactions worth more than $1 million each occurred Thursday, the highest...
    coinjournal.net
    Aug 21, 2026 08:41
    PEPE Supply on Exchanges Just Took a Massive Hit – What’s Next?
    A drop in PEPE exchange balances has added to bullish expectations despite muted trader interest.
    cryptopotato.com
    Aug 6, 2026 20:02
    PEPE Exchange Outflows Hit Nearly 2-Year High as Whales Accumulate
    Pepe (PEPE) recorded its largest single-day exchange outflow since November 2024, with 4.54 trillion tokens leaving trading platforms, signaling that holders are moving supply away from immediate...
    beincrypto.com
    Aug 6, 2026 04:57
    Meme Coin Based on White House Shooter Conspiracy Rallies 320%
    $HENRY surged 300% after a 2023 Pepe tweet appeared to name the White House shooter, fueling a viral time-travel meme. The post Meme Coin Based on White House Shooter Conspiracy Rallies 320%...
    beincrypto.com
    Apr 27, 2026 16:11
    PEPE surges 4% as market sentiment improves, eyes Key resistance breakout
    Key takeaways Pepe extends gains on Wednesday, stretching its rally from the 50-day EMA. Derivatives data show heightened retail activity as risk-on sentiment returns to the market. Pepe (PEPE) is...
    coinjournal.net
    Apr 22, 2026 11:44
    Why The PEPE Price Could Stage A 55X Rally To Reach New $0.0001 ATH
    The PEPE price has now started to edge back into bullish conversations after the recent inflows into the crypto market. The last time PEPE’s weekly chart printed the kind of structure now...
    newsbtc.com
    Apr 21, 2026 15:30
    Pepe (PEPE) surges 9%, drawing interest from whales
    Key takeaways PEPE is up 9% in the last 24 hours, making it one of the best performers among the top 50 cryptocurrencies by market cap. The rally comes amid renewed interest from whales and retail...
    coinjournal.net
    Apr 16, 2026 07:40
    Murad Says SPX6900 (SPX) Is Primed for a Rally — Is He Right This Time?
    Crypto influencer Murad Mahmudov claims SPX6900 (SPX) is stabilizing at the same market cap level where Dogecoin (DOGE) and Pepe (PEPE) consolidated before their explosive rallies. The...
    beincrypto.com
    Apr 5, 2026 21:36
    The Shiba Inu Of This Cycle: Analyst Shares Why It Is Better To Buy PEPE Now
    In the bull market cycle of 2021-2022, the Shiba Inu meme coin made waves in a way that changed the face of meme coins forever. This came after Dogecoin’s initial 36,000% rally, and Shiba Inu...
    newsbtc.com
    Apr 4, 2026 07:30
    PEPE Explodes by 18% Amid Altcoin Rally, BTC Tapped $74K: Market Watch
    The frog-themed meme coin is today's biggest gainer, followed by TAO, DOT, and BONK.
    cryptopotato.com
    Mar 16, 2026 10:56
    Should PEPE traders brace for volatility as short squeeze potential builds?
    The memecoin market has seen its collective market capitalization drop by 48% over the past year, and 6.9% over the past month, according to CoinMarketCap. According to Glassnode, the memecoin...
    ambcrypto.com
    Mar 7, 2026 18:00
    간단히 명령어를 채팅방에 입력하세요. Nick1을 실제 사용할 닉네임으로 바꾸세요
    • /ignore nick1 채팅 사용자를 차단합니다
    • /unignore nick1 채팅 사용자를 차단 해제합니다
    • /ignorelist 차단된 채팅 사용자 보기